Zurück zum Katalog

FENGYUN 1C DEB

AktivSSO
NORAD 30028·DEBRIS·🇨🇳 China

Gestartet May 10, 1999 von Taiyuan Satellite Launch Center

Loading…

Nächste Überflüge (nächste 24 Stunden)

TLE

AktuellSource: Space-Track

Epoche: Sep 14, 2026, 10:55 UTC

1 30028U 99025ND  26257.45504951  .00001618  00000-0  30500-3 0  9990
2 30028  98.1639 248.6581 0173771  92.4385  58.6205 14.56620945 37347

Verfolge FENGYUN 1C DEB in Echtzeit mit AllMySat

Download on the App Store